Tracking 30995 objects as of 7-Jul-2025
HD Live streaming from Space Station
objects crossing your sky now

SL-12 R/B(AUX MOTOR)

Track SL-12 R/B(AUX MOTOR) now!
10-day predictions


NORAD ID: 28919
Int'l Code: 2005-050E
Perigee: 521.3 km
Apogee: 18,977.2 km
Inclination: 64.9 °
Period: 339.5 minutes
Semi major axis: 16120 km
RCS: 0.5815 m2 (medium)
Launch date: December 25, 2005
Source: Commonwealth of Independent States (former USSR) (CIS)
Launch site: TYURATAM MISSILE AND SPACE COMPLEX (TTMTR)

Note: This is a ROCKET BODY
Your satellite tracking list
Your tracking list is empty




NASA's NSSDC Master Catalog

Two Line Element Set (TLE):
1 28919U 05050E   25187.14418163  .00000158  00000-0  15167-3 0  9997
2 28919  64.9396 188.5531 5724455 211.6275  95.5938  4.24174942301667
Source of the keplerian elements: AFSPC